Home > Weather > L'viv > Past weeks

Flag for Ukraine Past Weather in L'viv, Ukraine — Yesterday and Last 2 Weeks

Now
72 °F

Sunny.


Feels Like: 74 °F
Forecast: 66 / 84 °F
Wind: 6 mph from Southeast

Location: L'Viv Airport

Current Time: Jun 25, 2016 at 10:44:10 PM

Latest Report: Jun 25, 2016 at 10:00 PM


Visibility: 10 mi

Pressure: 30.01 "Hg

Humidity: 73%

Dew Point: 63 °F

Location of L'vivLocation

Past Weather in L'viv — Graph

°F

L'viv Temperature Yesterday

Maximum temperature yesterday: 86 °F (at 5:30 PM)
Minimum temperature yesterday: 64 °F (at 4:30 AM)
Average temperature yesterday: 76 °F

High & Low Weather Summary for the Past Weeks

 TemperatureHumidityPressure
High90 °F (Jun 17, 2:30 PM)100% (Jun 11, 6:30 AM)30.30 "Hg (Jun 11, 6:30 AM)
Low45 °F (Jun 12, 3:00 AM)31% (Jun 17, 2:30 PM)29.47 "Hg (Jun 14, 6:00 PM)
Average68 °F71%29.95 "Hg
* Reported Jun 10 9:00 PM — Jun 25 9:30 PM, L'viv, Weather by CustomWeather, © 2016

Note: Actual official high and low records may vary slightly from our data, if they occured in-between our weather recording intervals... More about our weather records

Advertising

L'viv Weather History for the Previous 24 Hours

Scroll right to see more
 ConditionsComfort  
Time TempWeatherWind HumidityBarometerVisibility
9:30 PM
Sat, Jun 25
75 °FSunny.3 mph65%30.01 "Hg10 mi
9:00 PM77 °FSunny.8 mph61%30.01 "Hg10 mi
8:30 PM79 °FSunny.10 mph58%30.01 "Hg10 mi
8:00 PM79 °FSunny.10 mph58%30.01 "Hg10 mi
7:30 PM81 °FSunny.10 mph54%30.04 "Hg10 mi
7:00 PM81 °FSunny.13 mph54%30.04 "Hg10 mi
6:30 PM82 °FSunny.15 mph51%30.04 "Hg10 mi
6:00 PM82 °FSunny.13 mph51%30.04 "Hg10 mi
5:30 PM84 °FSunny.10 mph48%30.07 "Hg10 mi
5:00 PM84 °FSunny.13 mph48%30.07 "Hg10 mi
4:30 PM84 °FPassing clouds.13 mph51%30.07 "HgN/A
4:00 PM84 °FPassing clouds.13 mph48%30.07 "HgN/A
3:30 PM82 °FSunny.15 mph51%30.07 "Hg10 mi
3:00 PM84 °FSunny.15 mph51%30.07 "Hg10 mi
2:30 PM82 °FPassing clouds.15 mph55%30.07 "HgN/A
2:00 PM82 °FPassing clouds.17 mph58%30.09 "HgN/A
1:30 PM82 °FPassing clouds.15 mph58%30.09 "HgN/A
1:00 PM82 °FPassing clouds.15 mph58%30.09 "HgN/A
12:30 PM82 °FPassing clouds.17 mph58%30.09 "HgN/A
12:00 PM81 °FPassing clouds.15 mph62%30.09 "HgN/A
11:30 AM81 °FPassing clouds.15 mph62%30.09 "HgN/A
11:00 AM81 °FPassing clouds.13 mph62%30.09 "HgN/A
10:30 AM79 °FPassing clouds.15 mph70%30.09 "HgN/A
10:00 AM77 °FSunny.17 mph69%30.09 "Hg10 mi
9:30 AM77 °FSunny.15 mph69%30.09 "Hg10 mi
9:00 AM75 °FSunny.13 mph74%30.09 "Hg10 mi
8:30 AM75 °FSunny.13 mph74%30.09 "Hg10 mi
8:00 AM73 °FSunny.10 mph78%30.09 "Hg10 mi
7:30 AM72 °FSunny.10 mph83%30.09 "Hg10 mi
7:00 AM70 °FSunny.8 mph83%30.09 "Hg10 mi
6:30 AM70 °FSunny.8 mph83%30.09 "Hg10 mi
6:00 AM70 °FClear.6 mph83%30.09 "Hg10 mi
5:30 AM70 °FClear.6 mph83%30.09 "Hg10 mi
5:00 AM70 °FClear.6 mph83%30.09 "Hg10 mi
4:30 AM70 °FClear.6 mph83%30.09 "Hg10 mi
4:00 AM70 °FClear.6 mph83%30.09 "Hg10 mi
3:30 AM70 °FClear.8 mph83%30.12 "Hg10 mi
3:00 AM70 °FClear.6 mph83%30.12 "Hg10 mi
2:30 AM68 °FClear.6 mph88%30.12 "Hg10 mi
2:00 AM70 °FClear.6 mph83%30.12 "Hg10 mi
1:30 AM70 °FClear.6 mph83%30.12 "Hg10 mi
1:00 AM73 °FClear.6 mph74%30.12 "Hg10 mi
12:30 AM75 °FClear.8 mph69%30.12 "Hg10 mi
12:00 AM75 °FClear.8 mph69%30.12 "Hg10 mi
11:30 PM
Fri, Jun 24
75 °FClear.8 mph74%30.12 "Hg10 mi
11:00 PM77 °FClear.6 mph69%30.12 "Hg10 mi
10:30 PM77 °FSunny.6 mph69%30.12 "Hg10 mi
10:00 PM77 °FSunny.6 mph69%30.12 "Hg10 mi
Weather by CustomWeather, © 2016

See weather overviewHow to use our weather pages